This is the latest recevied weather packets stored in our database for station/object W4MSI. If no packets are shown the sender has not sent any weather packets the latest 10 day(s).
| Time | Temp. | Humidity | Pressure | Rain* | Wind** | Luminosity | Snow |
|---|---|---|---|---|---|---|---|
| 1777716865 | 5° C | 91% | 1015.9 hPa | 0 mm | - | 0 W/m² | - |
| 1777716563 | 5° C | 91% | 1015.7 hPa | 0 mm | - | 0 W/m² | - |
| 1777716262 | 5° C | 91% | 1015.8 hPa | 0 mm | - | 0 W/m² | - |
| 1777715959 | 5° C | 91% | 1015.8 hPa | 0 mm | - | 0 W/m² | - |
| 1777715657 | 5.56° C | 91% | 1015.6 hPa | 0 mm | - | 0 W/m² | - |
| 1777715355 | 5° C | 91% | 1015.9 hPa | 0 mm | - | 0 W/m² | - |
| 1777715051 | 5° C | 91% | 1015.9 hPa | 0 mm | - | 0 W/m² | - |
| 1777714749 | 5.56° C | 91% | 1015.7 hPa | 0 mm | - | 0 W/m² | - |
| 1777714448 | 5.56° C | 90% | 1016 hPa | 0 mm | - | 0 W/m² | - |
| 1777714145 | 5.56° C | 89% | 1015.9 hPa | 0 mm | - | 0 W/m² | - |
| 1777713842 | 5.56° C | 88% | 1015.9 hPa | 0 mm | - | 0 W/m² | - |
| 1777713540 | 6.11° C | 88% | 1016 hPa | 0 mm | - | 0 W/m² | - |
| 1777713236 | 6.11° C | 86% | 1016.1 hPa | 0 mm | - | 0 W/m² | - |
| 1777712933 | 6.11° C | 86% | 1016.1 hPa | 0 mm | - | 0 W/m² | - |
| 1777712630 | 6.11° C | 83% | 1015.9 hPa | 0 mm | - | 0 W/m² | - |
| 1777712327 | 6.11° C | 80% | 1016 hPa | 0 mm | - | 0 W/m² | - |
| 1777712023 | 6.11° C | 80% | 1016.1 hPa | 0 mm | - | 0 W/m² | - |
| 1777711720 | 6.11° C | 84% | 1016 hPa | 0 mm | - | 0 W/m² | - |
| 1777711416 | 6.11° C | 88% | 1015.9 hPa | 0 mm | - | 0 W/m² | - |
| 1777711112 | 5.56° C | 88% | 1015.9 hPa | 0 mm | - | 0 W/m² | - |
| 1777710809 | 6.11° C | 88% | 1015.9 hPa | 0 mm | - | 0 W/m² | - |
| 1777710506 | 6.11° C | 88% | 1016 hPa | 0 mm | - | 0 W/m² | - |
| 1777710203 | 6.11° C | 88% | 1016.1 hPa | 0 mm | - | 0 W/m² | - |
| 1777709901 | 6.11° C | 86% | 1016 hPa | 0 mm | - | 0 W/m² | - |
| 1777709598 | 6.11° C | 88% | 1015.9 hPa | 0 mm | - | 0 W/m² | - |
* Rain latest hour (hover to see other rain measurements)
** Current wind speed in m/s (hover to see current wind gust speed)